Regional Weather Roundup
Issued by NWS

Home | Current Version | Previous Version | Text Only | Print | Product List | Glossary On
Versions: 1 2 3 4 5 6 7 8 9 10 11 12 13 14 15 16 17 18 19 20 21 22 23 24 25 26 27 28 29 30 31 32 33 34 35 36 37 38 39 40 41 42 43 44 45 46 47 48 49 50
000
ASUS46 KSTO 240104
RWRCA

NORTHERN AND CENTRAL CA REGIONAL WEATHER ROUNDUP
NATIONAL WEATHER SERVICE SACRAMENTO CA
600 PM PDT TUE MAY 23 2017

NOTE: FAIR INDICATES FEW OR NO CLOUDS BELOW 12,000 FEET WITH NO
SIGNIFICANT WEATHER AND/OR OBSTRUCTIONS TO VISIBILITY.

CAZ001-003-240200-
NORTHWEST AREA

CITY           SKY/WX    TMP DP  RH WIND       PRES   REMARKS
CRESCENT CITY  SUNNY     59  53  80 NW10      29.94F
UKIAH          SUNNY     93  43  17 VRB6      29.86S
$$

CAZ006-505>513-240200-
BAY AREA

CITY           SKY/WX    TMP DP  RH WIND       PRES   REMARKS
SANTA ROSA     MOSUNNY   65  51  60 S14       29.90S
SAN RAFAEL     N/A       75  MM  MM MISG
NAPA           SUNNY     68  55  63 S18       29.90S
CONCORD        SUNNY     82  56  40 W12       29.88R
OAKLAND CITY   N/A      MM  MM  MM MISG
OAKLAND        MOSUNNY   62  53  72 W20       29.94F
SAN FRAN CITY  N/A       58  MM  74 MISG
SAN FRAN ARPT  MOSUNNY   61  50  67 W22       29.93S
LIVERMORE      SUNNY     80  48  32 NW15      29.88S
HAYWARD        SUNNY     66  50  56 NW17      29.93S
REDWOOD CITY   N/A       75  MM  50 MISG
MOFFETT ARPT   SUNNY     67  57  70 NW14      29.93S
SAN JOSE ARPT  MOSUNNY   73  56  54 W16       29.91F
$$
CAZ034-037-514>518-240200-
CENTRAL COAST

CITY           SKY/WX    TMP DP  RH WIND       PRES   REMARKS
WATSONVILLE    MOSUNNY   58  54  86 S7        29.96F
SALINAS        CLOUDY    60  52  74 NW13      29.96F
MONTEREY       MOSUNNY   60  52  74 NW9       29.97F
SAN LUIS OBISP SUNNY     68  54  60 NW13      29.92F
SANTA MARIA    SUNNY     64  53  67 NW8       29.94F
$$
CAZ015-016-240200-
NORTHERN SACRAMENTO VALLEY

CITY           SKY/WX    TMP DP  RH WIND       PRES   REMARKS
REDDING        SUNNY     99  44  15 S7        29.79F HX  95
RED BLUFF      SUNNY     98  55  23 S12       29.79F HX  96
OROVILLE       SUNNY     98  52  21 SE6       29.81F HX  95
$$
CAZ016>018-240200-
SOUTHERN SACRAMENTO VALLEY

CITY           SKY/WX    TMP DP  RH WIND       PRES   REMARKS
AUBURN         SUNNY     90  43  19 SW6       29.91F
BEALE AFB      SUNNY     98  50  20 CALM      29.79F HX  94
LINCOLN        FAIR      97  39  13 CALM      29.80F HX  92
MARYSVILLE     SUNNY     98  45  16 CALM      29.80F HX  94
SAC INTL ARPT  MOSUNNY   94  60  32 S12       29.79F HX  94
MATHER AIRPORT SUNNY     97  54  23 W6        29.80  HX  94
DOWNTOWN SAC   N/A       96  MM  MM MISG
SAC EXEC ARPT  SUNNY     93  53  25 SW12      29.81S HX  90
VACAVILLE      SUNNY     94  57  28 W9        29.83S HX  92
TRAVIS AFB     SUNNY     81  57  43 SW18      29.81S
$$
CAZ019>021-240200-
SAN JOAQUIN VALLEY

CITY           SKY/WX    TMP DP  RH WIND       PRES   REMARKS
STOCKTON       SUNNY     96  54  24 NW14      29.81F HX  94
MODESTO        SUNNY     99  49  18 NW13      29.80S HX  96
MERCED         SUNNY     97  51  21 NW9       29.79F HX  94
LEMOORE        SUNNY    101  39  12 N9        29.79S HX  96
FRESNO         MOSUNNY   99  49  18 NW7       29.79F HX  96
HANFORD        SUNNY     98  54  22 CALM      29.79F HX  96
PORTERVILLE      N/A    101  49  17 NW9       29.80S HX  98
BAKERSFIELD    SUNNY    102  47  15 NW13      29.79F HX  98
$$
CAZ011-012-071-240200-
NORTHERN MOUNTAINS

CITY           SKY/WX    TMP DP  RH WIND       PRES   REMARKS
YREKA          SUNNY     89  47  23 N15       29.93F
MOUNT SHASTA   SUNNY     86  43  22 CALM      29.98F
ALTURAS        SUNNY     86  34  15 W10       30.03F
$$
CAZ011-012-071-240200-
SIERRA NEVADA MTNS

CITY           SKY/WX    TMP DP  RH WIND       PRES   REMARKS
BLUE CANYON    SUNNY     75  41  29 VRB5      30.17
TRUCKEE        MOSUNNY   77  39  25 W14G20    30.19S
TAHOE VLY ARPT MOSUNNY   74  41  30 S6        30.19F
MAMMOTH LAKES  FAIR      75  29  18 W14G21    30.24F
$$




USA.gov is the U.S. government's official web portal to all federal, state and local government web resources and services.